Regional Weather Roundup
Issued by NWS

Home | Current Version | Previous Version | Text Only | Print | Product List | Glossary Off
Versions: 1 2 3 4 5 6 7 8 9 10 11 12 13 14 15 16 17 18 19 20 21 22 23 24 25 26 27 28 29 30 31 32 33 34 35 36 37 38 39 40 41 42 43 44 45 46 47 48 49 50

109
ASUS43 KIND 301759
RWRIN

WEATHER ROUNDUP FOR INDIANA
NATIONAL WEATHER SERVICE INDIANAPOLIS IN
200 PM EDT MON MAY 30 2016

NOTE: "FAIR" INDICATES FEW OR NO CLOUDS BELOW 12,000 FEET WITH NO
SIGNIFICANT WEATHER AND/OR OBSTRUCTIONS TO VISIBILITY.

* - STATION DOES NOT REPORT WEATHER SUCH AS PRECIPITATION OR FOG.

+ - STATION NOT QUALITY CONTROLLED BY THE NATIONAL WEATHER SERVICE.
    USE DATA WITH CAUTION...ESPECIALLY DEWPOINT AND RELATIVE
    HUMIDITY OBSERVATIONS.

INZ001>003-010>013-019-020-301900-
NORTHWEST INDIANA

CITY           SKY/WX    TMP DP  RH WIND       PRES   REMARKS
GARY /AIRPORT/ MOSUNNY   81  66  61 NE7G21    30.02F
KNOX *+          N/A     84  39  20 W9G16       N/A
RENSSELAER +   MOSUNNY   86  50  28 NW8G18    30.02F

$$

LMZ046-743>745-301900-
SOUTHERN LAKE MICHIGAN

STATION/POSITION TIME  TEMP    WIND        PRES    WAVE
                       AIR SEA DIR/SP/G            HT
                 (UTC) (F)     (DEG/KT/KT) (MB)    (FT)
BURNS HARBOR     1700   69      50/  9/ 10 1017.3F
MICHIGAN CITY    1700   68     360/ 10/ 10   N/A
5NW MICH CITY    1700   67 63   20/  4/  6   N/A     1

$$

INZ004-005-014>016-021>024-301900-
NORTH CENTRAL INDIANA

CITY           SKY/WX    TMP DP  RH WIND       PRES   REMARKS
ELKHART        MOSUNNY   84  63  48 W13       30.03F
GOSHEN         MOSUNNY   79  57  46 NW8       30.02F
6HR MIN TEMP:  66; 6HR MAX TEMP:  83;

SOUTH BEND     MOSUNNY   83  58  42 N17       30.03F
6HR MIN TEMP:  67; 6HR MAX TEMP:  83;


$$

INZ006>009-017-018-025>027-301900-
NORTHEAST INDIANA

CITY           SKY/WX    TMP DP  RH WIND       PRES   REMARKS
ANGOLA *+        N/A     84  81  89 W13       30.02F HX  98
FORT WAYNE     PTSUNNY   85  55  35 W16G22    30.02F
6HR MIN TEMP:  68; 6HR MAX TEMP:  86;


$$

INZ028-029-035-036-043>045-051>053-301900-
WEST CENTRAL INDIANA

CITY           SKY/WX    TMP DP  RH WIND       PRES   REMARKS
CRAWFORDSVL +  PTSUNNY   83  52  34 CALM      30.05F
6HR MIN TEMP:  62; 6HR MAX TEMP:  83;

GREENCASTLE +  PTSUNNY   81  63  54 CALM      30.06F
LAFAYETTE      MOSUNNY   84  54  35 SW7       30.02F
6HR MIN TEMP:  62; 6HR MAX TEMP:  85;

TERRE HAUTE    SUNNY     83  54  36 CALM      30.06F
6HR MIN TEMP:  64; 6HR MAX TEMP:  86;


$$

INZ030>032-037>040-046>048-054>057-064-065-301900-
CENTRAL INDIANA

CITY           SKY/WX    TMP DP  RH WIND       PRES   REMARKS
COLUMBUS       SUNNY     82  55  39 NW6       30.05F
FRANKFORT +      N/A     87  22   9 NW12G18   30.06S
6HR MIN TEMP:  65; 6HR MAX TEMP:  87;

INDIANAPOLIS   PTSUNNY   84  56  38 NW6       30.04F
6HR MIN TEMP:  68; 6HR MAX TEMP:  84;

-EAGLE CREEK   PTSUNNY   83  53  35 CALM      30.04F
6HR MIN TEMP:  67; 6HR MAX TEMP:  83;

KOKOMO *+      MOSUNNY   86  55  35 SW5       30.03S
6HR MIN TEMP:  66; 6HR MAX TEMP:  86;

SHELBYVILLE    MOSUNNY   86  53  32 MISG      30.04F
6HR MIN TEMP:  70; 6HR MAX TEMP:  86;


$$

INZ033-034-041-042-049-050-058-059-301900-
EAST CENTRAL INDIANA

CITY           SKY/WX    TMP DP  RH WIND       PRES   REMARKS
MUNCIE         PTSUNNY   85  53  33 NW5       30.04F
6HR MIN TEMP:  69; 6HR MAX TEMP:  85;


$$

INZ060-061-067>069-081>083-085>088-301900-
SOUTHWEST INDIANA

CITY           SKY/WX    TMP DP  RH WIND       PRES   REMARKS
EVANSVILLE     SUNNY     85  58  39 N6        30.05F
6HR MIN TEMP:  66; 6HR MAX TEMP:  85;

HUNTINGBURG *+ MOSUNNY   82  61  47 NE6       30.05F
6HR MIN TEMP:  64; 6HR MAX TEMP:  82;


$$

INZ062-063-066-070>080-084-089>092-301900-
SOUTH CENTRAL AND SOUTHEAST INDIANA

CITY           SKY/WX    TMP DP  RH WIND       PRES   REMARKS
BLOOMINGTON    SUNNY     84  57  39 VRB3      30.07S
6HR MIN TEMP:  63; 6HR MAX TEMP:  84;

MADISON *+     SUNNY     84  50  30 NW3       30.07S
SEYMOUR +      MOSUNNY   86  57  37 N8        30.05S

$$





USA.gov is the U.S. government's official web portal to all federal, state and local government web resources and services.